sat.trackr.live / text

‹ back to catalog

STARLINK-30270

NORAD 57530 · 2023-115K

PAYLOAD ACTIVE UNKNOWN

§ Identity

Operator
Country
US
Launch date
2023-08-08
Launch site
AFWTR
Launch vehicle
Mass (kg)
RCS (m²)

Purposes: comms

External: N2YO · Heavens-Above · Gunter

§ Orbital elements

Epoch: 2026-09-20T22:13:54.335712Z

Period
94.27 min
Inclination
43.0016°
Eccentricity
0.0001920
Mean motion
15.27586398 rev/d
Perigee alt
481.7 km
Apogee alt
484.3 km
Semi-major
6,861.2 km
B*
4.4287e-4
RAAN
338.7265°
Arg perigee
267.3150°
Mean anomaly
92.7482°
Rev number
17,221

§ Raw data

STARLINK-302701 57530U 23115K   26263.92632333  .00011947  00000+0  44287-3 0  99912 57530  43.0016 338.7265 0001920 267.3150  92.7482 15.27586398172215

JSON: /api/v1/satellites/57530 · /tle

For live sub-satellite position, see the globe view (requires WebGL).

§ Visibility from observer

Set your observer location to see the next 7 days of passes ≥ 10°. The values pass through the URL so the page stays shareable.

No JS? Fill the form by hand. The geolocation button needs JavaScript.